Regional Weather Roundup
Issued by NWS New Orleans/Baton Rouge, LA

Home | Current Version | Previous Version | Graphics & Text | Print | Product List | Glossary On
Versions: 1 2 3 4 5 6 7 8 9 10 11 12 13 14 15 16 17 18 19 20 21 22 23 24 25 26 27 28 29 30 31 32 33 34 35 36 37 38 39 40 41 42 43 44 45 46 47 48 49 50
219
ASUS44 KLIX 191101
RWRLIX
NEW ORLEANS REGIONAL WEATHER ROUNDUP
NATIONAL WEATHER SERVICE NEW ORLEANS LA
500 AM CST FRI DEC 19 2014

NOTE: "FAIR" INDICATES FEW OR NO CLOUDS BELOW 12,000 FEET WITH NO
      SIGNIFICANT WEATHER AND/OR OBSTRUCTIONS TO VISIBILITY.
      SKY/WX - SKY CONDITION AND SIGNIFICANT WEATHER.
      TMP - AIR TEMPERATURE.     DP    - DEWPOINT TEMPERATURE.
      RH  - RELATIVE HUMIDITY.   PRES  - PRESSURE.
      HI  - HEAT INDEX.          WCI   - WIND CHILL INDEX.

*  THESE STATIONS ARE NOT NWS OR FAA STATIONS AND ARE NOT UNDER
   NWS QUALITY CONTROL.

LAZ038-040-048-061>063-065>067-069-191200-
SOUTHEAST LOUISIANA

CITY           SKY/WX    TMP DP  RH WIND       PRES   REMARKS
N.O. AUDUBON     N/A     60  52  76 MISG        N/A
N.O. INTL ARPT CLOUDY    57  50  77 E12       30.05S
N.O. LAKEFRONT CLOUDY    58  50  75 E13       30.06R
N.O. DOWNTOWN* CLOUDY    57  48  72 E10G17    30.06R
SLIDELL        LGT RAIN  56  49  77 NE8       30.08R
BATON ROUGE    RAIN      53  52  96 NW3       30.07R FOG
BOOTHVILLE     CLOUDY    59  58  96 NE8       30.05F
BELLE CHASSE   CLOUDY    56  52  86 E10       30.06R
BOGALUSA*        N/A     54  50  87 NE6       30.09F
GALLIANO*      NOT AVBL
NEW ROADS*     NOT AVBL
GONZALES*      NOT AVBL
HAMMOND*       NOT AVBL
HOUMA*         NOT AVBL
PORT FOURCHON* CLOUDY    64  61  88 E8        30.05F

$$

MSZ070-080>082-191200-
SOUTHERN MISSISSIPPI

CITY           SKY/WX    TMP DP  RH WIND       PRES   REMARKS
MCCOMB         CLOUDY    51  48  89 E6        30.10R
GULFPORT       CLOUDY    54  50  86 NE10      30.07F
BILOXI         MOCLDY    54  50  85 NE12      30.07F
PASCAGOULA     CLOUDY    54  47  77 NE8       30.09F

$$

COASTAL OBSERVATIONS
LAKE AND NEARSHORE STATIONS

STATION/POSITION TIME  TEMP    WIND        PRES    WAVE
                       AIR SEA DIR/SP/G            HT/PER
                 (UTC) (F)     (DEG/KT/KT) (MB)    (FT/S)
PASCAGOULA       1000   56      40/  9/ 13 1018.1
WAVELAND YACHT   1000   55      60/ 10/ 12 1017.5
GRAND ISLE       1000   62 62   70/  9/ 14 1017.5
SOUTHWEST PASS   1000   62                 1017.1
NEW CANAL        1000   56 58   80/  8/ 14 1017.8
SHELL BEACH      1000   57 60   70/ 18/ 21 1017.0

OFFSHORE STATIONS

STATION/POSITION TIME  TEMP    WIND        PRES    WAVE
                       AIR SEA DIR/SP/G            HT/PER
                 (UTC) (F)     (DEG/KT/KT) (MB)    (FT/S)
64 S DAUPHIN ISL 1100   69 75  100/ 14/ 17 1017.2    1/ 3

$$




USA.gov is the U.S. government's official web portal to all federal, state and local government web resources and services.